Tracking 17694 objects as of 29-May-2016
HD Live streaming from Space Station
objects crossing your sky now

N-1 R/B

Track N-1 R/B now!
10-day predictions


NORAD ID: 8710
Int'l Code: 1976-019B
Perigee: 998.0 km
Apogee: 1,016.6 km
Inclination: 69.7 °
Period: 105.1 minutes
Semi major axis: 7378 km
RCS: 1.547 m2 (large)
Launch date: February 29, 1976
Source: Japan (JPN)
Launch site: TANEGASHIMA SPACE CENTER (TNSTA)

Note: This is a ROCKET BODY
Your satellite tracking list
Your tracking list is empty





NASA's NSSDC Master Catalog

Two Line Element Set (TLE):
1 08710U 76019B   16148.82380272 -.00000031  00000-0  23112-4 0  9999
2 08710  69.6772 281.2645 0012561   1.6341 107.1706 13.69831483 12385
Source of the keplerian elements: AFSPC

N2YO: 515